Wind_Speed
36 41 48 54 62 72 82 92 104 115 119 118 122 123 123 125 117 112 111 104 100 95 97 103 108 107 106 102 99 94 94 96 94 93 90 87 90 79 77 77 74 68 69 64
41 39 41 48 55 63 70 82 95 107 116 118 118 122 120 125 123 114 118 113 111 106 106 105 102 105 103 100 99 101 98 96 95 93 92 91 86 76 71 72 74 70 67 65
45 44 43 44 52 56 66 74 81 96 108 113 115 114 120 124 125 121 115 116 118 115 115 113 112 110 108 104 105 105 102 102 97 93 86 79 74 69 71 71 66 67 71 72
48 49 49 48 49 56 62 70 81 93 103 110 116 110 109 116 124 125 125 123 115 114 115 116 119 118 112 112 110 103 105 102 92 93 91 87 87 84 88 88 83 82 82 80
47 49 53 56 56 55 58 67 74 84 96 104 112 116 102 111 117 122 125 126 127 126 121 114 113 113 111 107 101 98 100 100 87 87 89 91 91 92 95 85 78 73 73 75
55 54 55 57 59 60 60 60 65 77 90 105 110 115 112 106 116 124 129 128 130 131 130 134 127 120 117 115 114 112 104 95 91 89 79 75 74 74 75 75 74 69 74 80
59 59 59 59 60 60 62 64 65 67 76 91 106 112 109 115 115 118 126 130 130 128 128 134 138 137 134 130 122 116 111 109 107 103 103 98 87 86 87 90 80 77 88 84
63 64 63 64 64 64 64 65 69 70 72 76 88 99 107 117 121 125 125 126 130 130 129 134 135 134 132 136 133 130 126 123 117 110 109 103 97 98 99 91 89 87 86 87
69 69 69 69 67 66 66 67 71 72 76 78 81 86 91 106 122 124 128 129 128 129 134 132 129 127 126 129 136 135 133 129 124 122 122 118 115 108 104 101 100 105 101 92
66 72 75 76 73 73 70 72 74 75 75 78 80 83 89 96 107 120 126 128 129 131 133 132 131 129 126 126 127 128 124 116 110 106 104 103 102 104 107 107 95 85 80 75
57 67 76 82 81 76 76 76 78 80 81 82 80 80 88 98 99 102 108 116 124 131 132 128 126 126 126 125 124 124 121 115 111 105 101 97 94 94 92 90 85 80 75 69
50 57 66 76 78 79 80 80 80 81 83 85 82 80 95 93 93 98 101 104 109 110 113 118 124 127 127 123 118 116 115 112 110 107 104 101 96 91 89 83 78 76 71 67
44 48 54 63 69 73 74 76 75 73 75 78 79 79 79 80 81 81 86 92 102 100 100 103 104 108 112 113 112 112 112 111 109 104 98 95 91 89 85 81 76 72 68 64
35 41 45 49 53 56 61 65 66 65 65 66 69 58 67 64 65 66 69 77 85 89 91 94 93 98 102 98 94 90 85 87 88 90 93 92 88 86 80 73 69 66 64 61
29 35 35 40 45 44 49 57 58 54 56 53 54 54 57 52 50 54 61 63 67 69 73 80 81 85 87 88 86 85 78 74 73 72 73 74 74 71 71 69 65 61 58 57
23 27 28 34 35 33 41 44 44 46 43 36 41 50 41 46 42 46 49 48 52 54 55 54 60 66 71 73 77 77 73 70 71 65 63 59 50 47 52 56 56 53 51 50
16 16 21 30 25 32 40 38 39 41 35 32 36 37 36 36 36 36 35 34 40 42 39 39 43 48 54 62 65 66 65 65 63 56 50 41 37 36 37 38 36 38 42 41
15 18 22 29 26 34 35 31 34 32 31 30 31 28 28 31 30 25 25 32 33 33 32 34 35 40 44 46 49 52 51 50 51 46 38 32 30 30 29 31 26 29 29 26
18 21 24 29 24 29 28 25 30 27 29 21 22 23 24 25 22 21 25 23 25 27 29 29 31 32 34 37 40 42 43 46 44 39 35 37 35 32 27 21 22 20 18 15
23 24 27 26 22 24 12 23 21 21 22 18 20 20 19 20 20 20 19 21 22 24 24 27 32 36 37 37 44 54 55 54 52 49 45 38 36 31 25 20 20 23 21 28
26 25 25 20 20 20 11 17 18 21 21 17 19 17 17 18 21 24 28 30 31 31 32 38 45 48 50 55 57 57 62 63 60 55 49 38 30 24 19 16 19 22 25 25
28 23 21 19 19 13 12 15 15 17 17 18 16 18 20 25 31 36 36 35 36 39 43 47 48 55 64 72 76 75 70 66 60 49 41 35 24 19 13 14 16 20 21 21
27 20 19 16 15 15 15 14 14 16 17 18 18 24 29 34 36 40 42 42 46 50 54 61 69 80 84 84 81 72 65 59 51 49 42 38 30 19 13 12 15 17 17 17
23 21 21 16 15 16 14 16 15 15 18 18 27 34 36 38 43 47 54 60 63 65 70 78 83 84 83 80 72 68 63 60 52 43 37 31 18 11 4 6 10 13 15 16
22 20 19 19 14 15 11 12 12 15 18 31 37 41 51 55 59 64 68 68 69 75 82 84 73 74 75 73 68 62 58 51 50 33 31 21 12 2 3 6 12 13 13 15
23 22 20 19 15 13 7 7 14 17 28 39 46 53 67 81 78 79 80 79 77 79 76 75 71 69 67 67 65 59 51 49 43 36 27 16 8 5 5 10 10 11 13 12
Wind_Direction
247 244 241 239 236 235 231 229 226 225 226 227 229 229 231 235 234 234 237 241 243 244 248 251 252 253 254 254 254 253 255 260 260 259 264 266 270 271 274 276 273 282 283 278
247 246 243 240 238 236 233 231 228 227 228 228 229 230 231 234 237 236 236 239 242 244 248 250 251 253 251 251 252 255 256 258 261 262 266 269 269 267 270 268 269 275 267 275
246 247 245 241 237 238 236 231 229 230 229 230 230 232 233 233 235 239 234 238 241 245 247 249 253 254 255 256 257 256 257 258 261 263 265 266 264 260 268 267 272 270 268 276
247 244 246 245 241 236 235 236 234 232 231 232 231 233 235 236 236 239 241 237 235 241 245 248 250 251 255 257 257 258 261 261 262 263 263 264 267 267 271 270 269 273 271 281
249 246 242 242 244 243 239 236 237 237 233 233 235 232 236 238 239 240 241 241 241 240 236 240 246 245 245 246 250 252 255 258 259 261 265 265 265 269 270 269 272 276 276 279
246 245 245 243 243 244 245 244 241 239 239 236 236 236 233 238 242 241 240 241 243 244 245 245 244 245 248 251 253 250 247 247 249 256 258 258 262 262 265 268 271 271 273 279
252 248 247 247 246 245 245 245 245 243 241 241 240 238 237 238 240 243 242 241 242 243 245 246 246 247 252 251 251 251 252 254 256 256 256 257 255 259 266 272 268 267 279 280
251 251 250 248 247 246 246 245 245 244 245 243 242 240 240 240 239 241 241 244 245 244 244 245 246 249 249 251 254 254 253 257 257 254 252 255 253 257 263 271 272 275 273 278
248 250 250 249 248 248 249 249 248 246 245 245 246 243 240 243 242 241 241 245 243 245 245 244 245 247 248 250 252 254 256 258 259 259 258 259 260 262 262 266 270 274 274 274
246 245 249 250 248 248 248 249 252 253 250 248 246 247 248 246 244 244 243 243 245 246 245 247 248 247 247 247 249 252 253 256 256 257 258 259 260 259 260 264 267 267 270 271
247 245 244 249 250 250 248 249 251 253 255 255 252 253 252 251 248 248 246 246 245 245 247 248 248 249 248 247 249 250 252 254 255 255 256 257 258 259 259 261 263 263 265 267
249 244 244 248 251 252 254 254 254 255 257 259 259 255 256 256 253 249 248 249 248 246 246 246 247 249 249 248 247 248 251 252 253 253 254 255 255 257 259 259 261 263 264 265
250 249 246 249 252 253 256 259 260 259 260 262 261 262 261 260 257 254 251 250 249 249 247 245 245 246 248 249 248 245 246 250 250 251 251 252 254 254 256 257 258 261 263 264
250 245 247 252 254 257 259 261 263 265 266 266 267 265 262 256 257 255 249 246 248 246 246 246 242 241 243 245 246 246 241 242 245 247 249 249 249 251 252 254 256 257 258 260
249 249 248 249 252 252 257 259 262 264 264 263 268 264 261 263 258 254 251 247 246 246 244 244 244 242 240 240 240 241 238 235 237 238 241 244 245 246 248 249 251 253 255 256
256 251 249 253 256 257 258 260 268 269 266 266 259 261 263 260 255 251 249 247 247 245 240 241 242 241 239 238 235 235 233 229 228 229 233 239 244 242 240 241 245 248 251 254
270 264 259 260 262 264 268 272 268 269 272 267 262 258 261 258 256 249 249 245 243 238 236 231 229 230 231 230 230 230 228 222 220 221 225 229 229 222 223 230 234 240 244 248
286 275 274 277 276 276 271 269 270 275 269 263 260 260 257 251 248 243 234 231 226 225 219 215 215 217 220 217 215 218 218 211 206 205 205 210 198 192 195 204 214 232 236 232
298 293 292 291 295 278 273 266 267 271 270 248 252 248 242 239 233 221 220 218 212 204 201 202 201 201 200 198 196 190 185 180 182 167 169 167 167 170 176 177 199 209 201 205
315 310 299 296 291 278 278 265 270 268 267 232 234 232 230 223 213 207 195 185 181 181 178 176 173 170 165 162 164 162 161 154 149 152 150 146 145 148 151 162 186 196 187 206
319 307 299 293 282 281 275 276 271 256 254 241 233 219 209 197 185 169 161 160 159 159 158 158 156 151 149 151 147 139 141 142 143 143 140 136 124 126 141 170 194 206 213 224
322 311 309 302 293 283 283 284 272 253 246 241 223 195 181 174 165 162 157 152 152 149 150 151 148 142 140 137 135 137 138 138 139 140 137 127 133 146 173 190 214 217 229 228
326 319 313 307 300 300 296 285 260 242 232 225 194 176 171 167 164 153 142 144 139 140 142 137 136 134 134 133 132 131 132 132 133 131 133 139 157 170 195 216 228 230 228 227
330 323 312 308 302 301 297 280 251 231 218 192 170 168 160 153 146 141 139 135 133 133 134 132 132 133 134 135 131 132 134 134 133 136 142 152 170 198 192 230 220 219 221 225
330 325 316 308 304 302 281 272 242 216 195 166 163 158 145 139 136 134 132 130 130 129 132 131 132 135 137 136 131 130 135 133 135 147 158 171 193 184 238 231 218 222 229 240
332 324 324 320 322 318 298 237 215 191 175 164 165 149 138 129 127 126 125 127 129 131 134 133 133 133 133 134 125 126 133 137 143 168 173 191 218 245 249 223 219 226 232 244
Height
10536 10537 10541 10546 10549 10556 10564 10574 10585 10597 10611 10623 10633 10653 10659 10662 10676 10685 10689 10693 10696 10702 10707 10715 10726 10739 10749 10757 10767 10772 10779 10784 10792 10798 10804 10807 10812 10811 10812 10811 10813 10808 10807 10807
10526 10528 10532 10534 10538 10543 10550 10560 10569 10579 10590 10604 10613 10631 10638 10646 10652 10665 10670 10676 10681 10684 10688 10693 10701 10712 10726 10736 10746 10752 10761 10767 10775 10784 10789 10795 10796 10803 10800 10799 10800 10798 10796 10800
10516 10519 10521 10524 10528 10532 10537 10544 10552 10560 10570 10581 10596 10610 10616 10627 10634 10640 10650 10654 10663 10665 10675 10681 10686 10693 10703 10711 10721 10735 10743 10752 10760 10767 10775 10782 10782 10788 10790 10786 10785 10786 10788 10792
10505 10508 10510 10512 10514 10517 10521 10528 10534 10542 10553 10564 10576 10594 10598 10604 10611 10614 10625 10639 10643 10653 10659 10659 10665 10674 10680 10690 10702 10713 10720 10733 10745 10751 10760 10767 10770 10773 10775 10774 10770 10773 10779 10781
10493 10494 10496 10497 10499 10504 10508 10512 10519 10527 10536 10547 10550 10573 10581 10583 10589 10593 10598 10609 10621 10630 10639 10642 10643 10648 10657 10669 10679 10691 10703 10719 10729 10734 10741 10749 10756 10762 10760 10758 10754 10761 10765 10769
10476 10478 10481 10483 10486 10489 10494 10500 10506 10512 10517 10526 10531 10546 10572 10562 10556 10568 10577 10586 10597 10606 10612 10621 10627 10628 10634 10640 10653 10670 10683 10698 10711 10720 10724 10731 10736 10742 10745 10740 10742 10747 10754 10754
10461 10465 10467 10470 10472 10477 10481 10485 10489 10495 10499 10505 10511 10528 10547 10544 10543 10542 10548 10561 10572 10582 10588 10596 10605 10614 10618 10625 10635 10648 10661 10678 10689 10701 10713 10723 10728 10730 10734 10727 10731 10737 10740 10741
10446 10447 10450 10453 10456 10459 10464 10469 10472 10478 10480 10486 10491 10507 10516 10514 10515 10517 10522 10534 10543 10551 10559 10569 10579 10590 10600 10608 10611 10623 10637 10655 10666 10680 10690 10702 10710 10717 10720 10709 10715 10722 10727 10728
10426 10428 10430 10433 10439 10443 10447 10451 10452 10457 10462 10468 10469 10479 10493 10475 10483 10491 10500 10504 10515 10521 10525 10537 10553 10569 10580 10586 10589 10600 10615 10633 10646 10658 10669 10679 10689 10698 10704 10695 10705 10713 10718 10716
10404 10409 10411 10409 10419 10424 10433 10433 10433 10436 10442 10446 10454 10461 10457 10453 10457 10463 10476 10481 10485 10491 10498 10511 10526 10541 10551 10557 10569 10580 10595 10611 10625 10636 10647 10657 10665 10676 10683 10687 10695 10699 10701 10703
10383 10387 10391 10388 10396 10406 10411 10416 10417 10416 10419 10422 10433 10443 10432 10419 10431 10438 10442 10444 10455 10464 10474 10489 10498 10509 10524 10537 10551 10562 10573 10588 10603 10615 10627 10638 10646 10652 10660 10669 10677 10685 10687 10691
10364 10369 10374 10373 10378 10385 10391 10396 10397 10400 10401 10400 10406 10419 10398 10401 10405 10404 10414 10422 10422 10434 10447 10463 10469 10478 10488 10506 10527 10541 10552 10569 10580 10595 10608 10618 10626 10634 10643 10653 10660 10666 10672 10678
10351 10356 10359 10360 10363 10366 10372 10374 10375 10381 10381 10380 10379 10382 10382 10376 10376 10383 10392 10396 10393 10407 10423 10431 10446 10454 10460 10475 10497 10521 10536 10545 10560 10572 10585 10596 10608 10618 10628 10636 10644 10652 10657 10663
10343 10344 10347 10348 10352 10356 10358 10357 10357 10360 10361 10360 10353 10366 10347 10352 10355 10355 10360 10361 10369 10381 10392 10402 10417 10426 10434 10454 10474 10492 10513 10525 10537 10551 10560 10574 10588 10600 10612 10622 10632 10638 10644 10649
10334 10335 10340 10340 10340 10348 10347 10341 10343 10346 10343 10345 10342 10338 10332 10339 10337 10338 10340 10346 10352 10360 10368 10376 10391 10404 10419 10435 10453 10468 10490 10506 10517 10531 10539 10552 10567 10585 10598 10609 10618 10625 10631 10635
10328 10329 10331 10331 10333 10336 10332 10330 10330 10328 10327 10330 10328 10320 10327 10322 10323 10324 10327 10334 10340 10344 10350 10363 10375 10388 10401 10417 10432 10447 10466 10486 10499 10513 10526 10541 10558 10572 10583 10594 10603 10612 10616 10620
10324 10325 10325 10322 10328 10325 10318 10319 10317 10314 10316 10316 10313 10313 10312 10312 10313 10316 10321 10326 10329 10335 10343 10352 10359 10371 10383 10395 10414 10431 10449 10467 10487 10505 10520 10535 10548 10559 10571 10583 10593 10598 10604 10609
10321 10320 10318 10314 10318 10313 10309 10309 10307 10308 10306 10306 10304 10305 10306 10303 10304 10309 10312 10314 10320 10327 10334 10339 10347 10358 10370 10385 10399 10418 10440 10459 10479 10498 10515 10529 10541 10551 10563 10574 10582 10591 10597 10603
10317 10314 10311 10307 10306 10302 10300 10301 10299 10300 10297 10299 10298 10299 10297 10297 10299 10302 10303 10311 10317 10321 10326 10333 10343 10355 10366 10380 10394 10413 10434 10456 10478 10497 10512 10525 10537 10548 10560 10567 10579 10588 10593 10596
10311 10307 10302 10299 10297 10294 10296 10293 10293 10293 10292 10292 10291 10292 10293 10295 10296 10299 10303 10308 10314 10319 10327 10336 10345 10356 10366 10381 10398 10412 10433 10458 10477 10496 10513 10527 10539 10549 10556 10567 10576 10584 10587 10591
10306 10299 10295 10293 10291 10289 10290 10289 10289 10288 10287 10288 10287 10289 10291 10294 10297 10301 10304 10307 10314 10321 10329 10340 10349 10360 10372 10387 10404 10424 10444 10461 10479 10498 10512 10527 10538 10547 10557 10566 10573 10577 10582 10586
10300 10295 10291 10289 10286 10285 10283 10284 10284 10284 10285 10285 10287 10289 10292 10296 10299 10301 10305 10311 10318 10326 10340 10350 10360 10371 10382 10399 10413 10431 10447 10464 10482 10498 10511 10521 10537 10548 10557 10565 10568 10572 10576 10580
10294 10291 10288 10284 10282 10280 10279 10279 10279 10282 10283 10285 10288 10290 10295 10299 10304 10308 10312 10319 10328 10340 10352 10361 10374 10386 10400 10410 10422 10439 10453 10468 10486 10499 10511 10524 10538 10548 10556 10562 10566 10569 10571 10574
10293 10289 10284 10281 10280 10277 10277 10276 10277 10281 10282 10285 10290 10293 10300 10307 10312 10316 10324 10333 10342 10354 10368 10380 10391 10402 10412 10422 10434 10450 10464 10475 10490 10503 10515 10526 10539 10548 10554 10559 10561 10563 10566 10569
10290 10286 10282 10278 10278 10276 10275 10275 10278 10281 10284 10288 10294 10300 10309 10319 10326 10332 10340 10350 10363 10375 10386 10395 10406 10416 10427 10438 10446 10455 10467 10480 10493 10507 10522 10532 10542 10548 10552 10554 10557 10560 10562 10566
10287 10283 10280 10277 10276 10275 10273 10275 10275 10280 10285 10292 10299 10311 10319 10330 10340 10348 10358 10369 10381 10395 10404 10412 10421 10431 10442 10448 10456 10464 10474 10486 10497 10517 10527 10535 10541 10545 10549 10552 10553 10556 10559 10560